User: anonymous
Location: Melbourne
(37.8170°S, 144.9670°E)
Time: 18:20:10
(UTC+10:00)
Language:

ADEOS Rocket - Orbit

View from above orbital plane
View from above orbital plane
View from above satellite
View from above satellite

Ground track
Ground track

The orbit data is extracted from the following two-line orbital elements,

1 24279U 96046C   14265.14754924  .00000047  00000-0  10674-3 0  7296
2 24279 098.7369 320.6633 0299324 317.8605 091.8773 13.46990537889748
Epoch (UTC): 22 September 2014 03:32:28
Eccentricity: 0.0299324
inclination: 98.7369°
perigee height: 860 km
apogee height: 1306 km
right ascension of ascending node: 320.6633°
argument of perigee: 317.8605°
revolutions per day: 13.46990537
mean anomaly at epoch: 91.8773°
orbit number at epoch: 88974

The dashed part of the orbit path shows where the satellite is in the earth's shadow,  

DLR